Regional Weather Roundup
Issued by NWS

Home | Current Version | Previous Version | Graphics & Text | Print | Product List | Glossary Off
Versions: 1 2 3 4 5 6 7 8 9 10 11 12 13 14 15 16 17 18 19 20 21 22 23 24 25 26 27 28 29 30 31 32 33 34 35 36 37 38 39 40 41 42 43 44 45 46 47 48 49 50

000
ASUS43 KMKX 200221
RWRWI

WISCONSIN REGIONAL WEATHER ROUNDUP
NATIONAL WEATHER SERVICE MILWAUKEE/SULLIVAN WI
900 PM CDT SAT APR 19 2014

NOTE: "FAIR" INDICATES FEW OR NO CLOUDS BELOW 12,000 FEET WITH NO
SIGNIFICANT WEATHER AND/OR OBSTRUCTIONS TO VISIBILITY.

WIZ001-002-006>008-014>016-023>028-200300-
NORTHWEST WISCONSIN

CITY           SKY/WX    TMP DP  RH WIND       PRES   REMARKS
SUPERIOR ARPT  CLEAR     31  30  96 CALM      30.04R
ASHLAND        CLOUDY    38  36  92 N5        30.04R WCI  34
HAYWARD        MOCLDY    48  41  76 S3        30.02S
SIREN          MOCLDY    44  39  83 CALM      30.02R
RICE LAKE      CLOUDY    51  44  77 SE10      30.04S
LADYSMITH      RAIN      52  46  81 SE8       30.07R
EAU CLAIRE     CLOUDY    58  44  60 SE5       30.04R
MENOMONIE      DRIZZLE   56  44  65 SE7       30.03S
NEW RICHMOND   CLOUDY    56  46  69 S8        30.01S
OSCEOLA        CLOUDY    56  49  77 NW5       30.03R
$$

WIZ003>005-009-010-017-018-200300-
NORTH CENTRAL WISCONSIN

CITY           SKY/WX    TMP DP  RH WIND       PRES   REMARKS
WOODRUFF       LGT RAIN  44  39  83 SE7       30.09S
RHINELANDER    LGT RAIN  47  36  65 SE9       30.12S
EAGLE RIVER    LGT RAIN  45  35  68 S6        30.10S
LAND O LAKES   DRIZZLE   46  36  68 S8        30.10S
PHILLIPS       CLOUDY    50  42  75 S9        30.06S
TOMAHAWK       LGT RAIN  46  40  81 CALM      30.11S
MEDFORD        DRIZZLE   55  40  58 E5        30.10R
MERRILL        CLOUDY    53  39  60 CALM      30.13R
$$

WIZ029-030-035-036-043>047-200300-
CENTRAL WISCONSIN

CITY           SKY/WX    TMP DP  RH WIND       PRES   REMARKS
WAUSAU         CLOUDY    56  38  50 E8        30.11R
MOSINEE        CLOUDY    57  37  47 SE8       30.14R
MARSHFIELD     CLOUDY    59  40  49 S12       30.09S
STEVENS POINT  CLOUDY    55  36  49 SE10      30.14R
WAUPACA        MOCLDY    55  36  47 SE8       30.17R
WAUTOMA        MOCLDY    55  37  50 SE7       30.16R
WISC RAPIDS    CLOUDY    60  36  40 S7        30.13R
CAMP DOUGLAS   MOCLDY    59  38  46 SE7       30.11S
$$

WIZ011>013-019>022-031-037>040-048>050-200300-
NORTHEAST WISCONSIN

CITY           SKY/WX    TMP DP  RH WIND       PRES   REMARKS
ANTIGO         CLOUDY    47  36  64 SE12      30.16R
STURGEON BAY   MOCLDY    39  30  70 SE12      30.22S WCI  32
GREEN BAY      MOCLDY    46  37  71 S8        30.20R
MANITOWOC      CLOUDY    43  34  70 SE7       30.23F
APPLETON       MOCLDY    50  32  50 SE12      30.19R
CLINTONVILLE   MOCLDY    50  34  53 S10       30.17R
OSHKOSH        CLOUDY    50  34  54 S7        30.18R
$$

WIZ032>034-041-042-053>061-200300-
SOUTHWEST WISCONSIN

CITY           SKY/WX    TMP DP  RH WIND       PRES   REMARKS
LA CROSSE      MOCLDY    64  40  41 S9        30.06R
SPARTA         PTCLDY    63  33  33 SE10G16   30.10R
VIROQUA        FAIR      60  36  40 SE10      30.10S
BOSCOBEL       CLOUDY    65  35  33 VRB3      30.12R
PRAIRIE DU CHI CLOUDY    63  37  38 E6        30.10R
PLATTEVILLE    FAIR      57  37  45 SE7       30.16R
$$

WIZ056-057-062-063-064-067-068-200300-
SOUTH CENTRAL WISCONSIN

CITY           SKY/WX    TMP DP  RH WIND       PRES   REMARKS
BARABOO/DELLS  MOCLDY    59  34  39 S10       30.14S
LONE ROCK      CLOUDY    59  37  44 SE5       30.14R
WATERTOWN      CLOUDY    51  39  62 SE9       30.20S
MADISON        CLOUDY    58  36  43 SE6       30.17S
MIDDLETON      FAIR      60  32  35 SE5       30.17S
MONROE         CLOUDY    56  35  44 SE8       30.18R
JANESVILLE     NOT AVBL
$$

WIZ051-052-058>065-066-070>072-200300-
SOUTHEAST WISCONSIN

CITY           SKY/WX    TMP DP  RH WIND       PRES   REMARKS
MILWAUKEE      CLOUDY    46  34  62 SE6       30.25R
WAUKESHA       CLEAR     46  36  66 SE7       30.24R
MILWAUKEE/TIMM CLEAR     46  34  61 CALM      30.24R
RACINE         CLOUDY    46  33  60 S10       30.25S
BURLINGTON     CLOUDY    49  37  63 SW9       30.22R
KENOSHA        MOCLDY    45  34  65 SE9       30.24R
FOND DU LAC    CLOUDY    50  37  61 S16       30.18F
SHEBOYGAN      CLOUDY    42  33  70 S8        30.23S
WEST BEND      CLOUDY    45  32  61 SE3       30.23S
JUNEAU         CLOUDY    52  34  50 SE13      30.21S
$$

LSZ147-162-200300-
LAKE SUPERIOR

STATION/POSITION TIME  TEMP    WIND        PRES    WAVE
                       AIR SEA DIR/SP/G            HT/PER
                 (UTC) (F)     (DEG/KT/KT) (MB)    (FT/S)
DEVILS ISLAND    0200   37        CALM     1017.7R
PORT WING        0140   36      50/  4/  5 1016.9S
SAXON HARBOR     0130          280/  6/ 20 1016.3R
$$

LMZ867-665-643>646-200300-
LAKE MICHIGAN

STATION/POSITION TIME  TEMP    WIND        PRES    WAVE
                       AIR SEA DIR/SP/G            HT/PER
                 (UTC) (F)     (DEG/KT/KT) (MB)    (FT/S)
NORTHPORT PIER   0100   38     150/ 10/ 14 1023.0F
SISTER BAY       0139   39     170/ 12/ 21   N/A
KEWAUNEE LAKESHO 0200   36     140/  6/ 10 1024.2R
SHEBOYGAN LAKESH 0200   45     170/  9/ 10 1024.6F
PORT WASHINGTON  0100   43     230/  2/  4 1024.4S
MILWAUKEE LAKESH 0200   43     150/  6/  7   N/A
KENOSHA   LAKESH 0200   42     170/  7/  9   N/A
$$

TC  - TEMPERATURE IN CELSIUS
VSB - VISIBILITY IN STATUTE MILES
WCI - WIND CHILL INDEX
HX  - HEAT INDEX




USA.gov is the U.S. government's official web portal to all federal, state and local government web resources and services.